DateTime,Index
2004091606,0.0
2004091612,0.0
2004091618,1225.0
2004091700,1600.0
2004091706,2500.0
2004091712,3025.0
2004091718,3025.0
2004091800,4900.0
2004091806,7225.0
2004091812,8100.0
2004091818,9025.0
2004091900,9025.0
2004091906,10000.0
2004091912,11025.0
2004091918,12100.0
2004092000,12100.0
2004092006,13225.0
2004092012,12100.0
2004092018,12100.0
2004092100,14400.0
2004092106,15625.0
2004092112,14400.0
2004092118,11025.0
2004092200,10000.0
2004092206,9025.0
2004092212,8100.0
2004092218,8100.0
2004092300,9025.0
2004092306,12100.0
2004092312,11025.0
2004092318,8100.0
2004092400,6400.0
2004092406,5625.0
2004092412,4900.0
2004092418,4225.0
2004092500,3025.0
2004092506,3025.0
2004092512,3025.0
2004092518,3025.0
2004092600,3025.0
2004092606,3025.0
2004092612,3600.0
2004092618,3600.0
2004092700,3025.0
2004092706,2025.0
2004092712,1600.0
2004092718,1225.0
2004092800,0.0
